Regional Weather Roundup
Issued by NWS Midland/Odessa, TX

Skip options and go directly to product.
Home | Oldest Version | Previous Version | Current Version | All | Text Only | Save Text | Print | Product List | Glossary On

Skip product version selection by date and time.   
411
ASUS44 KMAF 300410
RWRMAF
MIDLAND AREA WEATHER ROUNDUP
NATIONAL WEATHER SERVICE MIDLAND TX
1100 PM CDT FRI MAY 29 2015

...IN SOUTHWEST TEXAS AND SOUTHEAST NEW MEXICO...

CITY           SKY/WX    TMP DP  RH WIND       PRES   REMARKS
ALPINE         CLEAR     71  48  44 S8        30.11S
ANDREWS        FAIR      71  65  82 NE10      30.05R
ARTESIA        PTCLDY    77  57  50 SE13      30.02R
BIG SPRING     MOCLDY    79  72  78 E6        30.05R
CARLSBAD       CLEAR     74  55  51 E7        30.01R
DRYDEN           N/A     77  69  76 MISG      29.96R
FORT STOCKTON  CLEAR     72  67  84 SE17      29.98R
GUAD PASS      CLEAR     68  47  46 NE21      30.12R
HOBBS          CLOUDY    64  48  55 NE22G33   30.07R
MARFA          CLEAR     66  48  52 CALM      30.11R
MIDLAND AIRPK  PTCLDY    78  66  66 SE8       30.03R
MIDLAND INTL   PTCLDY    77  66  68 SE9       30.02R
ODESSA         MOCLDY    76  65  68 S16       30.03R
PECOS          CLEAR     73  63  71 CALM      29.96R
PRESIDIO       FAIR      85  56  38 MISG      29.93R
SEMINOLE       MOCLDY    73  63  72 NE10      30.10R
SNYDER         CLOUDY    75  67  77 NE9       30.04R
WINK           CLEAR     75  61  61 E8        29.99R
$$
...OTHER STATIONS IN TEXAS...

CITY           SKY/WX    TMP DP  RH WIND       PRES   REMARKS
ABILENE        CLOUDY    77  69  76 E7        30.00R
AMARILLO       LGT RAIN  62  55  77 SE9       30.13F
AUSTIN         PTCLDY    75  70  84 S7        29.97R
BROWNSVILLE    CLEAR     77  75  93 SE7       29.96S
CORPUS CHRISTI MOCLDY    77  74  90 SE7       29.95S
DALLAS FTW     MOCLDY    72  67  84 E5        29.97R
DEL RIO        CLOUDY    79  69  71 SE8       29.92R
EL PASO        PTCLDY    85  20   9 N6        29.97R
HOUSTON INT    PTCLDY    77  71  82 S5        29.99R
LUBBOCK        TSTM      60  56  86 N22G31    30.17R
SAN ANGELO     CLEAR     75  69  81 S6        29.98R
SAN ANTONIO    PTCLDY    79  71  76 S12       29.98R
WACO           CLEAR     74  68  81 SE6       29.96R
WICHITA FALLS  NOT AVBL
$$
...OTHER LOCATIONS IN NEW MEXICO...

CITY           SKY/WX    TMP DP  RH WIND       PRES   REMARKS
ALAMAGORDO     CLEAR     77  28  16 NE9       30.00R
ALBUQUERQUE    PTCLDY    72  32  23 VRB3      30.15R
CANNON AFB     MOCLDY    59  54  85 N9        30.14R
CLOVIS         CLOUDY    57  54  88 NE9       30.13R
HOLLOMAN AFB   PTCLDY    75  26  16 NE6       29.98R
ROSWELL        MOCLDY    73  53  49 E12       30.04R
RUIDOSO        MOCLDY    64  32  29 CALM      30.27R
SANTA FE       PTCLDY    61  18  18 CALM      30.20R
TRUTH OR CONSE PTCLDY    77  29  17 N15       30.06R
TUCUMCARI      CLOUDY    60  56  86 NE8       30.16R
$$

USA.gov is the U.S. government's official web portal to all federal, state and local government web resources and services.